Location: ??????????
(54.7560°N, 39.1389°E)
Time: 04:46:40
(UTC+00:00)

BREEZE-M DEB (TANK) - Pass Details

Date: 19 May 2025
Orbit: 282 x 12173 km, 49.5° (Epoch: 19 June)

Event Time Altitude Azimuth Distance (km) Brightness Sun altitude
Rises 20:50:26 0° 284° (WNW) 7,788 8.4 -15.0°
Reaches altitude 10° 20:57:52 10° 280° (W) 4,962 7.3 -15.1°
Maximum altitude 21:07:11 35° 220° (SW) 1,440 4.0 -15.2°
Enters shadow 21:09:00 25° 176° (S) 1,395 3.7 -15.2°
